Weather in Rosenheim

Germany     47°51′06″N   12°07′52″E
temp.,
°C
wind,
m/s
gust,
m/s
humid.,
%
clouds,
%
prec.,
mm/h
press.,
hPa
HPBL,
m
6 may, thu
thu623:00+2ssw2492100 0.3 101776
02:00+1s349590 0.3 101797
05:000s349799 0.0 101685
08:00+3s2383100 0.0 1015192
11:00+8sse1254100 0.0 1012934
14:00+12ne0241100 0.0 10081384
17:00+10nne2262100 0.0 1006464
20:00+6se2295100 0.6 100771
7 may, fri
fri723:00+6s2397100 2.6 100873
02:00+6s2497100 3.9 1008110
05:00+5ssw2396100 0.8 1009123
08:00+6wnw4148885 1.0 10111538
11:00+2w12100100 1.5 1016208
14:00+4w2588100 2.1 1017802
17:00+5wnw368697 0.6 1018925
20:00+3wsw129211 1.2 102040
8 may, sat
sat823:00+2ssw239594 0.8 102349
02:00+1s239634 0.9 102356
05:00−1s349757 0.0 102469
08:00+3s348920 0.0 1023178
11:00+12sse124234 0.0 10201164
14:00+16sse043266 0.0 10172073
17:00+15n223835 0.0 10161202
20:00+9ese117621 0.0 101612
9 may, sun
sun923:00+6s338053 0.0 101852
02:00+5s45785 0.0 101881
05:00+5s457830 0.0 101678
08:00+10s34635 0.0 1014145
11:00+20sse12370 0.0 1010747
14:00+24n133213 0.0 10081745
17:00+22ne22435 0.0 1007829
20:00+16sse11809 0.0 100712
10 may, mon
mon1023:00+10s45835 0.0 100993
02:00+8s47839 0.0 1011121
05:00+7sse458227 0.0 101091
08:00+13s35662 0.0 1010198
11:00+21s12432 0.0 1008899
14:00+25n14355 0.0 10061656
17:00+23ne33463 0.0 1005784
20:00+16se2284100 0.0 100516